www.pogodaiklimat.ru

АРХИВ ПОГОДЫ в Далласе

Время (UTC), дата Ветер
(напр.,м/с)
 
Видим.   Явления Облачность Т
(С)
Тd
(С)
f
(%)
Тe
(С)
Тes
(С)
Комфортность

P
(гПа)

Po
(гПа)
Тmin
(С)
Tmax
(С)
R
(мм)
SD
(см)
16:53 23.05 Ю  16 км    8/5 1230 м
[верхняя] 
+29.0  +19.0  55  +34  +40  очень
душно 
1016.4  997.4  +21.1  +30.6     
17:53 23.05 Ю  4
{8} 
16 км    8/5 1440 м
[верхняя] 
+31.7  +18.3  45  +36  +41  очень
душно 
1015.6  996.7         
18:53 23.05 ЮВ  16 км    8/8 1500 м
[верхняя] 
+31.7  +18.9  47  +37  +39  очень
душно 
1015.0  996.1         
19:53 23.05 Ю  16 км    8/5 1800 м
[верхняя] 
+32.0  +17.0  41  +36  +39  очень
душно 
1014.6  995.7         
20:53 23.05 Ю  16 км    5/5 1800 м
[верхняя] 
+32.2  +17.2  41  +36  +38  очень
душно 
1013.9  995.1         
21:53 23.05 Ю  16 км    5/2 1800 м
[верхняя] 
+32.2  +17.8  42  +36  +40  очень
душно 
1013.8  994.7         
22:53 23.05 ЮВ  16 км    2/2 1800 м
[верхняя] 
+31.1  +17.2  43  +35  +37  очень
душно 
1013.5  994.7  +29.4  +32.8     
23:53 23.05 ЮВ  16 км    2/2 1800 м
[верхняя] 
+30.0  +17.0  46  +34  +35  очень
душно 
1013.6  994.7         
00:53 24.05 ЮВ  16 км    2/2 1800 м
[верхняя] 
+28.0  +18.0  55  +33  +33  очень
душно 
1014.2  995.4         
02:53 24.05 Ю  16 км    2/2 1800 м  +26.7  +19.4  64  +32  +32  очень
душно 
1015.9  997.1         
03:53 24.05 Ю  16 км    2/2 1800 м
[верхняя] 
+25.6  +20.0  71  +31  +31  очень
душно 
1016.4  997.4         
04:53 24.05 Ю  16 км    2/2 1800 м
[верхняя] 
+24.0  +19.0  74  +29  +29  душно  1016.7  997.7  +24.4       
05:53 24.05 ЮВ  16 км    5/0 7500 м
[верхняя] 
+23.9  +19.4  76  +29  +29  душно  1016.2  997.4         
06:53 24.05 Ю  16 км    5/0 7500 м
[верхняя] 
+22.8  +19.4  81  +29  +29  очень
душно 
1016.1  997.1         
07:53 24.05 Ю  16 км    2/0 7500 м
[верхняя] 
+22.2  +19.4  84  +28  +28  душно  1016.2  997.4         
08:53 24.05 ЮВ  16 км    2/0 7500 м
[верхняя] 
+21.1  +19.4  90  +26  +26  душно  1016.3  997.4         
09:53 24.05 ЮВ  16 км    5/0 7500 м
[верхняя] 
+21.1  +20.0  93  +26  +26  душно  1016.6  997.7         
10:53 24.05 ЮВ  16 км    2/0 9000 м
[верхняя] 
+21.1  +20.0  93  +26  +26  душно  1016.9  998.1         
11:53 24.05 ЮВ  16 км    2/2 900 м
[верхняя] 
+22.8  +21.1  90  +30  +30  очень
душно 
1017.1  998.1         
12:53 24.05 Ю  16 км    5/2 600 м
[верхняя] 
+25.0  +21.7  82  +32  +33  очень
душно 
1017.6  998.7         
13:53 24.05 Ю  16 км    5/5 570 м
[верхняя] 
+27.0  +21.0  70  +34  +35  очень
душно 
1017.6  998.7         
14:53 24.05 Ю  16 км    8/5 900 м
[верхняя] 
+27.8  +20.0  63  +34  +37  очень
душно 
1017.3  998.4         
15:53 24.05 Ю  16 км    8/5 1050 м
[верхняя] 
+28.3  +19.4  59  +34  +37  очень
душно 
1017.5  998.4         
16:53 24.05 Ю  16 км    8/5 1200 м
[верхняя] 
+30.0  +19.0  52  +35  +41  очень
душно 
1017.1  998.1  +21.1  +30.0     
17:53 24.05 Ю  16 км    8/5 1410 м
[верхняя] 
+29.0  +19.0  55  +34  +40  очень
душно 
1016.4  997.4         
18:53 24.05 ЮВ  16 км    8/5 1500 м
[верхняя] 
+31.7  +18.9  47  +37  +42  очень
душно 
1015.6  996.7         
19:53 24.05 Ю  16 км    8/5 1470 м
[верхняя] 
+32.0  +19.0  46  +37  +43  очень
душно 
1015.1  996.1         
20:53 24.05 ЮВ  16 км    8/5 1650 м
[верхняя] 
+31.7  +17.8  44  +36  +41  очень
душно 
1014.5  995.4         
21:53 24.05 Ю  16 км    5/5 1650 м
[верхняя] 
+31.7  +17.8  44  +36  +41  очень
душно 
1014.0  995.1         
22:53 24.05 Ю  16 км    5/2 1650 м
[верхняя] 
+31.0  +18.0  46  +35  +38  очень
душно 
1013.6  994.7  +29.4       
23:53 24.05 Ю  16 км    2/2 1650 м
[верхняя] 
+30.0  +17.8  48  +34  +35  очень
душно 
1013.5  994.4         
00:53 25.05 Ю  16 км    2/2 1650 м
[верхняя] 
+28.3  +18.9  57  +34  +34  очень
душно 
1013.9  995.1         
01:53 25.05 ЮВ  16 км    2/0 9000 м
[верхняя] 
+27.2  +19.4  62  +33  +33  очень
душно 
1014.5  995.4         
02:53 25.05 ЮВ  16 км    2/0 9000 м
[верхняя] 
+26.7  +20.0  67  +33  +33  очень
душно 
1014.8  995.7         
03:53 25.05 ЮВ  16 км    2/0 9000 м
[верхняя] 
+26.7  +20.0  67  +33  +33  очень
душно 
1014.7  995.7         
04:53 25.05 ЮВ  16 км    2/0 9000 м
[верхняя] 
+25.0  +20.0  74  +31  +31  очень
душно 
1014.4  995.4         
05:53 25.05 Ю  16 км    2/2 1500 м  +26.1  +20.0  69  +32  +32  очень
душно 
1013.9  995.1         
06:53 25.05 Ю  16 км    2/2 1500 м  +25.6  +20.6  74  +32  +32  очень
душно 
1013.5  994.7         
07:53 25.05 Ю  16 км    2/2 1800 м  +24.4  +21.1  82  +31  +31  очень
душно 
1013.2  994.4         
08:53 25.05 Ю  16 км    2/2 1500 м
[верхняя] 
+23.9  +20.6  82  +30  +30  очень
душно 
1013.2  994.4         
09:53 25.05 Ю  16 км    5/5 1800 м
[верхняя] 
+23.9  +20.6  82  +30  +30  очень
душно 
1012.9  994.1         
10:53 25.05 Ю  16 км    5/0 2550 м
[средняя] 
+24.0  +21.0  83  +30  +30  очень
душно 
1013.2    +23.3       
11:53 25.05 ЮЗ  16 км    2/0 2550 м
[средняя] 
+25.6  +21.7  79  +33  +33  очень
душно 
1013.4  994.7         
12:53 25.05 Ю  16 км    2/0 2550 м
[средняя] 
+27.2  +21.7  72  +35  +36  очень
душно 
1013.4  994.7         
13:53 25.05 Ю  16 км    2/0 7500 м
[верхняя] 
+29.4  +21.7  63  +37  +40  очень
душно 
1013.4  994.4         
14:53 25.05 ЮЗ  16 км    2/0 7500 м
[верхняя] 
+30.6  +20.6  55  +38  +41  очень
душно 
1013.4  994.7         
15:53 25.05 Ю  4
{9} 
16 км    5/2 1050 м
[средняя верхняя] 
+31.1  +20.6  54  +38  +43  очень
душно 
1013.1  994.4         
16:53 25.05 ЮВ  16 км    8/5 1050 м
[средняя верхняя] 
+32.2  +21.1  52  +40  +45  очень
душно 
1012.9  994.1  +23.9  +32.8     

 

Местоположение метеостанции Dallas / Fort Worth International Airport: широта 32.8974 долгота -97.0220 высота над уровнем моря 165 м.

В архиве по умолчанию представлена погода в Далласе за последние 1-2 суток. Обновление информации о фактической погоде в базе происходит ежечасно! Архивные данные за месяц целиком и за предыдущие месяцы Вы можете получить, выбрав интересующий диапазон дат из раскрывающегося списка и нажав кнопку "Ввод!".

Внимание! Архив погоды МЕТАР в базе сайта в настоящее время начинается c 1 января 2013 г. Нет смысла пытаться выбрать более раннюю дату.

Внимание! Время в таблицах - всемирное. Для получения местного времени необходимо прибавить поправку, которая в Далласе равна -6 ч.

Ветер - указаны скорость ветра в м/с и направление, откуда дует ветер: С - северный, СВ - северо-восточный, В - восточный, ЮВ - юго-восточный, Ю - южный, ЮЗ - юго-западный, З - западный, СЗ - северо-западный.
Видимость - горизонтальная дальность видимости в метрах или километрах. При видимости от 1 до 10 км при отсутствии осадков обычно наблюдается дымка, при ухудшении видимости до 1 км и менее - туман. В сухую погоду видимость может ухудшаться дымом, пылью или мглою.
Атмосферные явления - указаны явления, наблюдавшиеся в указанный момент времени.
Облачность - указаны через наклонную черту верхняя и нижняя облачность в баллах и высота нижней границы облаков в метрах. Внимание: облачность, как и прочие метеорологические величины в США измеряются автоматическими метеостанциями. Указанные значения в баллах носят условный характер и показывают процент времени, в течение которого, в среднем, лазерный луч высотомера отражался от облаков обратно.
T - Температура воздуха - температура, измеренная на высоте 2 м над землей.
Td - Температура точки росы - температура, при понижении до которой содержащийся в воздухе водяной пар достигнет насыщения.
f - Относительная влажность воздуха - влажноcть воздуха, измеренная на высоте 2 м над землей.
Te - Эффективная температура - температура, которую ощущает одетый по сезону человек в тени. Характеристика душности погоды. При расчете учитывается влияние влажности воздуха и скорости ветра на теплоощущения человека.
Tes - Эффективная температура на солнце - температура, которую ощущает человек, с поправкой на солнечный нагрев. Характеристика знойности погоды. Зависит от высоты солнца над горизонтом, облачности и скорости ветра. Ночью, в пасмурную погоду, а также при ветре 12 м/с и более поправка равна нулю.
P - Атмосферное давление - приведенное к уровню моря атмосферное давление.
Po - Атмосферное давление - измеренное на уровне метеостанции атмосферное давление.
Tmin - Минимальная температура - минимум температуры воздуха на высоте 2 м над землей.
Tmax - Максимальная температура - максимум температуры воздуха на высоте 2 м над землей.
R - Количество осадков - Количество выпавших осадков за 3 или 6 часов, мм.
SD - Снежный покров - Высота снежного покрова, см.